User: anonymous   Login
Location: Caltech
(34.1382°N, 118.1253°W)
Time: 00:04:13
(UTC-08:00)
Language:

Cosmos 2237 Rocket - Orbit

View from above orbital plane
View from above orbital plane
View from above satellite
View from above satellite

Ground track
Ground track

The orbit data is extracted from the following two-line orbital elements,

1 22566U 93016B   14327.19524969 -.00000133  00000-0 -44039-4 0  2101
2 22566 071.0091 233.6092 0008025 124.7482 235.4397 14.14870463118730
Epoch (UTC): 23 November 2014 04:41:09
Eccentricity: 0.0008025
inclination: 71.0091°
perigee height: 837 km
apogee height: 848 km
right ascension of ascending node: 233.6092°
argument of perigee: 124.7482°
revolutions per day: 14.14870463
mean anomaly at epoch: 235.4397°
orbit number at epoch: 11873

The dashed part of the orbit path shows where the satellite is in the earth's shadow,  

DLR